Frederick, MD

4:18 AM EDT on July 25, 2017 (GMT -0400)
Frederick Municipal

Weather History for KFDK - June, 2013

Change the Weather History Date:

Monday, June 24, 2013

  Actual Average (KHGR) Record (KHGR)
Temperature  
Mean Temperature 80 °F -  
Max Temperature 91 °F 81 °F 96 °F (2010)
Min Temperature 68 °F 61 °F 55 °F (2001)
Cooling Degree Days 14    
Growing Degree Days 30 (Base 50)    
Moisture  
Dew Point 70 °F    
Average Humidity 91    
Maximum Humidity 100    
Minimum Humidity 49    
Precipitation  
Precipitation 0.00 in - - ()
Sea Level Pressure  
Sea Level Pressure 30.12 in    
Wind  
Wind Speed 3 mph (SSW)    
Max Wind Speed 18 mph    
Max Gust Speed 24 mph    
Visibility 10 miles    
Events Rain , Thunderstorm    
Averages and records for this station are not official NWS values.
T = Trace of Precipitation, MM = Missing Value Source: NWS Daily Summary

Daily Weather History Graph

Daily Weather History Graph

Search for Another Location

Airport or City:

Trip Planner

Search our weather history database for the weather conditions in past years. The results will help you decide how hot, cold, wet, or windy it might be!

Date:

Astronomy

Jun. 24, 2013 Rise Set
Actual Time 5:43 AM EDT 8:40 PM EDT
Civil Twilight 5:11 AM EDT 9:12 PM EDT
Nautical Twilight 4:30 AM EDT 9:53 PM EDT
Astronomical Twilight 3:42 AM EDT 10:41 PM EDT
Moon 9:41 PM EDT (6/24) 7:08 AM EDT (6/24)
Length of Visible Light 16h 01m
Length of Day
14h 56m
Full, 98% of the Moon is Illuminated
Jun 24
Full
Jun 30
Last Quarter
Jul 8
New
Jul 15
First Quarter
Jul 22
Full

Hourly Weather History & Observations

Time (EDT) Temp. Heat Index Dew Point Humidity Pressure Visibility Wind Dir Wind Speed Gust Speed Precip Events Conditions
12:00 AM 71.6 °F - 69.8 °F 94% 30.15 in 10.0 mi Calm Calm - N/A   Clear
12:20 AM 69.8 °F - 69.8 °F 100% 30.15 in 10.0 mi Calm Calm - N/A   Clear
12:40 AM 69.8 °F - 69.8 °F 100% 30.14 in 10.0 mi Calm Calm - N/A   Clear
1:00 AM 69.8 °F - 69.8 °F 100% 30.14 in 10.0 mi Calm Calm - N/A   Clear
1:20 AM 71.6 °F - 69.8 °F 94% 30.14 in 10.0 mi Calm Calm - N/A   Clear
1:40 AM 69.8 °F - 69.8 °F 100% 30.14 in 10.0 mi SSE 3.5 mph - N/A   Clear
2:00 AM 68.0 °F - 68.0 °F 100% 30.14 in 10.0 mi Calm Calm - N/A   Clear
2:20 AM 68.0 °F - 68.0 °F 100% 30.13 in 10.0 mi Calm Calm - N/A   Clear
2:40 AM 68.0 °F - 68.0 °F 100% 30.13 in 10.0 mi SSE 3.5 mph - N/A   Clear
3:00 AM 69.8 °F - 69.8 °F 100% 30.13 in 10.0 mi South 4.6 mph - N/A   Scattered Clouds
3:20 AM 69.8 °F - 69.8 °F 100% 30.13 in 10.0 mi SSW 3.5 mph - N/A Thunderstorm Scattered Clouds
3:40 AM 69.8 °F - 69.8 °F 100% 30.13 in 10.0 mi South 4.6 mph - N/A   Scattered Clouds
4:00 AM 69.8 °F - 69.8 °F 100% 30.13 in 10.0 mi SE 4.6 mph - N/A   Scattered Clouds
4:20 AM 69.8 °F - 69.8 °F 100% 30.13 in 10.0 mi South 3.5 mph - N/A   Overcast
4:40 AM 69.8 °F - 69.8 °F 100% 30.13 in 10.0 mi Calm Calm - N/A   Overcast
5:00 AM 69.8 °F - 69.8 °F 100% 30.14 in 10.0 mi SSE 3.5 mph - N/A   Scattered Clouds
5:20 AM 69.8 °F - 69.8 °F 100% 30.13 in 10.0 mi South 4.6 mph - N/A   Clear
5:40 AM 69.8 °F - 69.8 °F 100% 30.13 in 10.0 mi South 4.6 mph - N/A   Scattered Clouds
6:00 AM 69.8 °F - 69.8 °F 100% 30.13 in 10.0 mi South 5.8 mph - N/A   Mostly Cloudy
6:20 AM 69.8 °F - 68.0 °F 94% 30.14 in 10.0 mi SSW 5.8 mph - N/A   Scattered Clouds
6:40 AM 71.6 °F - 68.0 °F 88% 30.15 in 10.0 mi SSW 6.9 mph - N/A   Clear
6:45 AM 71.6 °F - 69.8 °F 94% 30.15 in 10.0 mi SSW 6.9 mph - N/A   Clear
7:55 AM 75.2 °F - 69.8 °F 83% 30.15 in 10.0 mi SSW 4.6 mph - N/A   Scattered Clouds
8:50 AM 80.6 °F 83.9 °F 69.8 °F 70% 30.15 in 10.0 mi WSW 8.1 mph - N/A   Scattered Clouds
9:50 AM 82.4 °F 86.3 °F 69.8 °F 66% 30.16 in 10.0 mi WSW 6.9 mph - N/A   Scattered Clouds
10:45 AM 82.4 °F 87.2 °F 71.6 °F 70% 30.16 in 10.0 mi SW 6.9 mph - N/A   Scattered Clouds
10:50 AM 82.4 °F 87.2 °F 71.6 °F 70% 30.16 in 10.0 mi SW 6.9 mph - N/A   Scattered Clouds
11:52 AM 86.0 °F 91.8 °F 71.6 °F 62% 30.15 in 10.0 mi South 3.5 mph - N/A   Clear
12:50 PM 89.6 °F 94.7 °F 69.8 °F 52% 30.14 in 10.0 mi Variable 5.8 mph - N/A   Clear
2:56 PM 91.4 °F 96.8 °F 69.8 °F 49% 30.09 in 10.0 mi West 5.8 mph - N/A   Scattered Clouds
3:45 PM 78.8 °F - 69.8 °F 74% 30.10 in 2.0 mi NNW 18.4 mph 24.2 mph N/A Rain , Thunderstorm Heavy Thunderstorms and Rain
4:23 PM - - - N/A% - 7.0 mi SW 17.3 mph - N/A   Mostly Cloudy
6:50 PM 78.8 °F - 68.0 °F 69% 30.08 in 10.0 mi SW 6.9 mph - N/A   Clear
7:50 PM 75.2 °F - 71.6 °F 89% 30.07 in 10.0 mi SSE 3.5 mph - N/A   Clear
9:00 PM 71.6 °F - 69.8 °F 94% 30.06 in 10.0 mi SSW 4.6 mph - N/A   Clear
9:20 PM 71.6 °F - 69.8 °F 94% 30.06 in 10.0 mi Calm Calm - N/A   Clear
9:40 PM 69.8 °F - 69.8 °F 100% 30.07 in 10.0 mi Calm Calm - N/A   Clear
10:00 PM 69.8 °F - 69.8 °F 100% 30.07 in 10.0 mi SSE 4.6 mph - N/A   Clear
10:20 PM 69.8 °F - 69.8 °F 100% 30.08 in 10.0 mi Calm Calm - N/A   Clear
10:40 PM 69.8 °F - 69.8 °F 100% 30.09 in 10.0 mi Calm Calm - N/A   Clear
11:00 PM 69.8 °F - 69.8 °F 100% 30.09 in 10.0 mi South 3.5 mph - N/A Thunderstorm Clear
11:20 PM 68.0 °F - 68.0 °F 100% 30.08 in 10.0 mi Calm Calm - N/A   Clear
11:40 PM 68.0 °F - 68.0 °F 100% 30.08 in 10.0 mi SSE 3.5 mph - N/A   Clear